User: anonymous   Login
Location: Gorze? G�rny
(49.8500°N, 19.5000°E)
Time: 09:25:27
(UTC+00:00)
Language:

Cosmos 1674 Rocket - Orbit

View from above orbital plane
View from above orbital plane
View from above satellite
View from above satellite

Ground track
Ground track

The orbit data is extracted from the following two-line orbital elements,

1 15945U 85069B   21216.83723267  .00000079  00000-0  66019-5 0  9995
2 15945  82.5295 159.0725 0019243 344.0549  16.0058 14.84087514923842
Epoch (UTC): 04 August 2021 20:05:36
Eccentricity: 0.0019243
inclination: 82.5295°
perigee height: 603 km
apogee height: 630 km
right ascension of ascending node: 159.0725°
argument of perigee: 344.0549°
revolutions per day: 14.84087514
mean anomaly at epoch: 16.0058°
orbit number at epoch: 92384

The dashed part of the orbit path shows where the satellite is in the earth's shadow,  

DLR